Regional Weather Roundup
Issued by NWS

Home | Current Version | Previous Version | Graphics & Text | Print | Product List | Glossary On
Versions: 1 2 3 4 5 6 7 8 9 10 11 12 13 14 15 16 17 18 19 20 21 22 23 24 25 26 27 28 29 30 31 32 33 34 35 36 37 38 39 40 41 42 43 44 45 46 47 48 49 50
000
ASUS43 KDTX 211410
RWRMI
MICHIGAN HOURLY REGIONAL WEATHER ROUNDUP
NATIONAL WEATHER SERVICE DETROIT/PONTIAC MI
1000 AM EDT SAT APR 21 2018

NOTE: "FAIR" INDICATES FEW OR NO CLOUDS BELOW 12,000 FEET WITH NO
SIGNIFICANT WEATHER AND/OR OBSTRUCTION TO VISIBILITY.

MIZ047>049-052>055-059>063-066>070-074>076-081>083-211500-
SOUTHEAST LOWER MICHIGAN

CITY           SKY/WX    TMP DP  RH WIND       PRES   REMARKS
ADRIAN         FAIR      45  28  51 CALM      30.48F
ALMA           FAIR      42  33  72 CALM      30.47F
ANN ARBOR      FAIR      46  30  53 S3        30.48F
BAD AXE        FAIR      46  27  47 CALM      30.49S
CARO           FAIR      46  27  47 S3        30.47F
DETROIT CITY   FAIR      46  24  42 SE5       30.50S
DETROIT        CLOUDY    46  28  49 VRB3      30.49F
FLINT          FAIR      47  28  47 S7        30.48S
GROSSE ILE     FAIR      44  31  61 CALM      30.49S
HILLSDALE      FAIR      46  25  42 SE8       30.45S
HOWELL         FAIR      47  26  43 S8        30.46F

CITY           SKY/WX    TMP DP  RH WIND       PRES   REMARKS
JACKSON        FAIR      50  26  39 S7        30.45F
LAMBERTVILLE   FAIR      49  26  40 SE5       30.47F
LANSING        FAIR      47  27  45 S9        30.46F
LAPEER         FAIR      46  27  46 CALM      30.48F
MASON          FAIR      46  27  46 S6        30.46S
MONROE         FAIR      45  36  69 E6        30.48F
MT. CLEMENS    CLOUDY    42  34  74 VRB5      30.48S
PONTIAC        CLOUDY    47  27  45 CALM      30.47S
PORT HOPE        N/A     38  32  79 E5        30.47S WCI  34
PORT HURON     FAIR      45  18  33 CALM      30.49F
TRI CITIES     FAIR      46  31  55 S7        30.47F
MIDLAND        FAIR      43  30  60 CALM      30.47S
TROY           FAIR      46  24  43 CALM      30.50F
SAGINAW HB     FAIR      46  28  49 S6        30.47F
$$
MIZ043>046-050>051-056>058-064>065-071>073-077>080-211500-
SOUTHWEST LOWER MICHIGAN

CITY           SKY/WX    TMP DP  RH WIND       PRES   REMARKS
BATTLE CREEK   FAIR      47  27  45 S6        30.45S
BENTON HARBOR  FAIR      45  26  47 CALM      30.46R
BIG RAPIDS     FAIR      36  25  63 CALM      30.46F
COLDWATER      FAIR      47  24  39 S7        30.45S
FREMONT        FAIR      41  18  39 CALM      30.46S
HOLLAND        FAIR      45  25  45 CALM      30.47R
GRAND RAPIDS   PTSUNNY   45  29  53 CALM      30.46S
IONIA          FAIR      44  30  58 CALM      30.45F
KALAMAZOO      FAIR      46  28  49 S8        30.46R
LUDINGTON      FAIR      39  29  65 CALM      30.46S
MARSHALL       FAIR      48  23  37 S8        30.45S
MOUNT PLEASANT FAIR      43  31  62 CALM      30.46F
MUSKEGON       CLOUDY    44  23  43 CALM      30.47S
SOUTH HAVEN    FAIR      45  24  43 CALM      30.46S
$$
MIZ016>042-211500-
NORTHERN LOWER MICHIGAN

CITY           SKY/WX    TMP DP  RH WIND       PRES   REMARKS
ALPENA         FAIR      45  19  35 W3        30.47F
BEAVER ISLAND  FAIR      47  14  27 SE5       30.45R
BELLAIRE       FAIR      41  14  32 CALM      30.47S
CADILLAC       FAIR      41  25  53 CALM      30.43F
CHARLEVOIX     FAIR      44  19  36 SE7       30.47F
FRANKFORT      FAIR      46  17  31 CALM      30.46S
GAYLORD        FAIR      41  14  33 S3        30.44S
GRAYLING       FAIR      35  22  59 CALM      30.45S
HARBOR SPRINGS FAIR      44  16  33 CALM      30.45F
HOUGHTON LAKE  FAIR      43  28  55 CALM      30.46S
MANISTEE       FAIR      36  26  67 CALM      30.47S
OSCODA         FAIR      42  28  58 SW5       30.47F
PELLSTON       FAIR      36  22  56 CALM      30.45F
ROGERS CITY    FAIR      46  15  28 SW3       30.46S
TRAVERSE CITY  FAIR      44  20  38 CALM      30.45S
$$
MIZ007>008-015-211500-
EASTERN UPPER MICHIGAN

CITY           SKY/WX    TMP DP  RH WIND       PRES   REMARKS
KINROSS        FAIR      41  24  51 CALM      30.44F
MACKINAC ISLAN FAIR      45  14  28 CALM      30.44F
NEWBERRY       FAIR      42  21  43 S6        30.43S
S. S. MARIE    FAIR      45  21  38 CALM      30.43F
MUNISING         N/A     43  27  53 S6        30.41S
$$
MIZ004>006-011>014-085-211500-
CENTRAL UPPER MICHIGAN

CITY           SKY/WX    TMP DP  RH WIND       PRES   REMARKS
MANISTIQUE     FAIR      39  36  89 SE7       30.43S WCI  34
ESCANABA       FAIR      48  18  30 VRB3      30.43S
MENOMINEE      FAIR      48  19  31 VRB3      30.44S
SAWYER-GWINN   SUNNY     43  18  36 NE5       30.41S
$$
MIZ001>003-009>011-084-211500-
WESTERN UPPER MICHIGAN

CITY           SKY/WX    TMP DP  RH WIND       PRES   REMARKS
IRON MOUNTAIN  FAIR      46  18  32 NW3       30.40S
HOUGHTON       FAIR      45  20  36 W3        30.39S
COPPER HARBOR    N/A     44  18  35 E3        30.41S
IRONWOOD       FAIR      42  20  41 CALM      30.42F
$$

ABBREVIATIONS USED IN REMARKS
   TC - TEMPERATURE IN CELSIUS
  WCI - WIND CHILL INDEX
   HX - HEAT INDEX
  VSB - VISIBILITY





USA.gov is the U.S. government's official web portal to all federal, state and local government web resources and services.